User: anonymous   Login
Location: Little Eden Observatory
(34.6167°N, 93.7833°W)
Time: 14:17:09
(UTC-06:00)
Language:

N. Korean satellite - Orbit

View from above orbital plane
View from above orbital plane
View from above satellite
View from above satellite

Ground track
Ground track

The orbit data is extracted from the following two-line orbital elements,

1 39026U 12072A   18319.99242183  .00001410  00000-0  54413-4 0  9999
2 39026  97.2104 325.2343 0039776 142.0954 218.3098 15.27199877328824
Epoch (UTC): 15 November 2018 23:49:05
Eccentricity: 0.0039776
inclination: 97.2104°
perigee height: 457 km
apogee height: 511 km
right ascension of ascending node: 325.2343°
argument of perigee: 142.0954°
revolutions per day: 15.27199877
mean anomaly at epoch: 218.3098°
orbit number at epoch: 32882

The dashed part of the orbit path shows where the satellite is in the earth's shadow,  

DLR